[[{"header":{"parameterUnit":"m.s-1","parameterCategory":2,"la1":30.2991,"la2":30.254,"lo1":-89.0895,"lo2":-89.0444,"dy":0.0017,"dx":0.0017,"nx":28,"ny":28,"refTime":"2025-11-20T03:00:00:Z","depth":"0","parameterNumber":2,"parameterNumberName":"U-component_of_CURRENTS"},"data":[0,0,0,0,0,0,0,0,0,0,0,0,0,0,0,0,0,0,0,0,0,0,0,0,0,0,0,0,0,0,0,0,0,0,0,0,0,0,0,0,0,0,0,0,0,0,0,0,0,0,0,0,0,0,0,0,0,0,0.308,0.3081,0,0.3184,0.3185,0.3187,0.3251,0.3251,0.3251,0.3251,0.3361,0.3364,0.3367,0,0,0,0,0,0,0,0,0,0,0,0,0,0.2964,0.2966,0.308,0.3081,0.3082,0.3184,0.3186,0.3187,0.3251,0.3251,0.3251,0.3251,0.336,0.3363,0.3367,0,0,0,0,0,0,0,0,0,0,0,0,0,0.3039,0.2967,0.308,0.3124,0.3128,0.3183,0.3186,0.3188,0.3251,0.3251,0.3251,0.3251,0.3359,0.3363,0.3367,0.3393,0,0,0.3381,0.3382,0,0,0,0,0,0,0,0,0.3035,0.3043,0.3116,0.3121,0.3126,0.3202,0.3185,0.3256,0.3251,0.3208,0.3251,0.3251,0.3306,0.3315,0.3339,0.3398,0.3403,0.3381,0.3384,0.3385,0.3387,0,0,0,0,0,0,0,0.3029,0.3039,0.3124,0.3117,0.3123,0.3147,0.3158,0.3199,0.3258,0.3211,0.3215,0.3222,0.3309,0.3334,0.3342,0.3404,0.3381,0.3385,0.3387,0.3389,0.3545,0.3546,0,0,0,0,0,0,0.3009,0.3035,0.3121,0.3127,0.3076,0.3149,0.3161,0.318,0.3257,0.3268,0.3222,0.3225,0.3327,0.3337,0.3346,0.3425,0.3385,0.339,0.3392,0.3543,0.3545,0.3547,0,0,0,0,0,0,0.3006,0.3016,0.3117,0.308,0.3094,0.3151,0.3171,0.3182,0.3205,0.3265,0.3276,0.3233,0.3327,0.334,0.34,0.3427,0.3391,0.3395,0.3541,0.3544,0.3546,0.3554,0,0,0,0,0,0,0.3003,0.3015,0.3023,0.3079,0.3095,0.3152,0.3171,0.3184,0.3208,0.3212,0.3278,0.3289,0.3328,0.3394,0.3405,0.3433,0.3399,0.3539,0.3542,0.3545,0.3552,0.3556,0.356,0,0,0,0,0,0.2999,0.3011,0.3023,0.3033,0.3104,0.3152,0.3164,0.3205,0.3208,0.3225,0.3277,0.3287,0.342,0.3399,0.3411,0.3441,0.3538,0.3541,0.3545,0.355,0.3555,0.356,0,0,0,0,0,0,0.296,0.3019,0.3034,0.3063,0.3103,0.3162,0.3181,0.3199,0.3253,0.3259,0.3307,0.3323,0.3388,0.3411,0.3387,0.3495,0.348,0.3486,0.348,0.3485,0.3489,0.3475,0.3402,0,0,0,0,0,0.2954,0.2981,0.3035,0.3054,0.3077,0.3124,0.3147,0.3174,0.3225,0.3248,0.3292,0.3348,0.3413,0.3443,0.3498,0.3552,0.3588,0.358,0.3584,0.3587,0.3585,0.3639,0.3647,0.3558,0.3558,0.3558,0,0,0.2941,0.2976,0.299,0.3048,0.3085,0.3132,0.314,0.3176,0.3219,0.3251,0.332,0.3362,0.3431,0.3504,0.3534,0.3525,0.3644,0.3591,0.3594,0.359,0.3643,0.3652,0.366,0.356,0.356,0.3559,0,0,0.2936,0.2965,0.2993,0.3034,0.3087,0.3125,0.313,0.319,0.3224,0.3287,0.3331,0.3385,0.347,0.3531,0.3572,0.3627,0.3663,0.3645,0.3657,0.3709,0.3716,0.3723,0.383,0.3846,0.3647,0.3647,0.3647,0,0.2919,0.2969,0.3005,0.305,0.3087,0.3121,0.3166,0.321,0.3279,0.3311,0.3309,0.3443,0.3488,0.359,0.3615,0.3636,0.3687,0.363,0.3713,0.372,0.3726,0.3834,0.3851,0.3648,0.3647,0.3647,0.3647,0,0.2946,0.2992,0.3012,0.3087,0.3127,0.3169,0.3234,0.3272,0.3303,0.3345,0.3429,0.3491,0.3567,0.3594,0.3626,0.3705,0.3737,0.371,0.3694,0.3736,0.3847,0.3865,0.3649,0.3648,0.3648,0.3648,0,0,0.29,0.3012,0.302,0.3065,0.3154,0.3188,0.3262,0.334,0.3388,0.3437,0.3507,0.3596,0.3604,0.3651,0.3691,0.3734,0.384,0.374,0.3742,0.3837,0.4004,0.4031,0.4054,0.382,0.3822,0.3824,0.408,0,0.2916,0.3004,0.3057,0.3137,0.3193,0.3254,0.3322,0.339,0.3448,0.3521,0.3573,0.3654,0.3637,0.368,0.3717,0.382,0.388,0.3776,0.3957,0.3963,0.3972,0.4071,0.3953,0.417,0.4098,0.4101,0.4103,0,0.2929,0.2993,0.3076,0.3183,0.3211,0.3255,0.3361,0.3429,0.3536,0.3583,0.3645,0.3693,0.3796,0.3751,0.3922,0.3858,0.3927,0.3986,0.3997,0.4023,0.4022,0.4108,0.4205,0.4091,0.4131,0.4129,0.4127,0,0.2888,0.3001,0.3067,0.3106,0.323,0.3266,0.3328,0.3435,0.3508,0.3623,0.369,0.3784,0.388,0.3939,0.4078,0.4002,0.4276,0.4185,0.428,0.4286,0.4221,0.4217,0.4212,0.4284,0.4283,0.4282,0.4282,0,0.2894,0.2945,0.3046,0.3085,0.3156,0.3242,0.332,0.3403,0.3527,0.3628,0.3708,0.3825,0.3925,0.4091,0.4143,0.4319,0.4339,0.4318,0.4352,0.4228,0.4221,0.4145,0.4094,0.4292,0.429,0.4288,0.4286,0,0.2856,0.2926,0.3,0.3111,0.3141,0.3188,0.3312,0.3387,0.3506,0.3647,0.3694,0.3908,0.4128,0.4265,0.4451,0.445,0.4477,0.463,0.4517,0.453,0.4416,0.4371,0.4292,0.4156,0.4735,0.4737,0.4739,0,0.2859,0.2891,0.2993,0.3043,0.3092,0.3168,0.3239,0.3359,0.3458,0.3703,0.3794,0.4054,0.4252,0.4581,0.465,0.4804,0.4615,0.4749,0.4538,0.443,0.4406,0.4197,0.4071,0.4492,0.4492,0.4491,0.4491,0,0.2875,0.2894,0.2971,0.305,0.3116,0.3183,0.3293,0.336,0.3531,0.3681,0.394,0.4117,0.4437,0.4576,0.4785,0.4822,0.4518,0.4744,0.4639,0.4234,0.3999,0.3879,0.4349,0.4489,0.4489,0.4489,0.4489,0.4489,0.2901,0.2942,0.3031,0.3099,0.3162,0.3224,0.3249,0.3385,0.3539,0.3725,0.3961,0.4181,0.4414,0.469,0.4719,0.4641,0.454,0.4473,0.445,0.4263,0.4038,0.454,0.4694,0.4696,0.4697,0.4698,0.4699,0,0.2974,0.3028,0.3088,0.3164,0.3195,0.3221,0.3316,0.3326,0.3463,0.3681,0.3879,0.4143,0.4324,0.4446,0.4492,0.4356,0.4108,0.4238,0.3884,0.3783,0.4261,0.4152,0.4185,0.4185,0.4185,0.4185,0.4185,0.4185,0.3042,0.3113,0.3125,0.3188,0.3213,0.32,0.3222,0.3243,0.3359,0.351,0.3636,0.3789,0.4068,0.4312,0.4233,0.4128,0.3767,0.367,0.3599,0.3926,0.3942,0.3957,0.3837,0.3804,0.3803,0.2935,0.2929,0.2925]},{"header":{"parameterUnit":"m.s-1","parameterCategory":2,"la1":30.2991,"la2":30.254,"lo1":-89.0895,"lo2":-89.0444,"dy":0.0017,"dx":0.0017,"nx":28,"ny":28,"refTime":"2025-11-20T03:00:00:Z","depth":"0","parameterNumber":3,"parameterNumberName":"V-component_of_CURRENTS"},"data":[0,0,0,0,0,0,0,0,0,0,0,0,0,0,0,0,0,0,0,0,0,0,0,0,0,0,0,0,0,0,0,0,0,0,0,0,0,0,0,0,0,0,0,0,0,0,0,0,0,0,0,0,0,0,0,0,0,0,-0.0272,-0.0272,0,-0.0329,-0.033,-0.0331,-0.0377,-0.0377,-0.0377,-0.0377,-0.0387,-0.0387,-0.0387,0,0,0,0,0,0,0,0,0,0,0,0,0,-0.023,-0.023,-0.0272,-0.0272,-0.0273,-0.0329,-0.033,-0.0331,-0.0377,-0.0377,-0.0377,-0.0378,-0.0387,-0.0387,-0.0387,0,0,0,0,0,0,0,0,0,0,0,0,0,-0.0266,-0.023,-0.0272,-0.03,-0.0303,-0.0329,-0.033,-0.0331,-0.0377,-0.0377,-0.0377,-0.0378,-0.0387,-0.0387,-0.0387,-0.0382,0,0,-0.0388,-0.0388,0,0,0,0,0,0,0,0,-0.0264,-0.0268,-0.0296,-0.0298,-0.0302,-0.0344,-0.0318,-0.0345,-0.0377,-0.0352,-0.0377,-0.0378,-0.0366,-0.0368,-0.0383,-0.0382,-0.0383,-0.0388,-0.0388,-0.0388,-0.0388,0,0,0,0,0,0,0,-0.0261,-0.0266,-0.0297,-0.0296,-0.03,-0.0319,-0.0325,-0.0324,-0.0358,-0.0354,-0.0357,-0.0359,-0.0368,-0.0383,-0.0383,-0.0383,-0.0388,-0.0388,-0.0388,-0.0388,-0.0395,-0.0395,0,0,0,0,0,0,-0.0247,-0.0263,-0.0296,-0.0299,-0.028,-0.0319,-0.0326,-0.0332,-0.0359,-0.0363,-0.0358,-0.036,-0.0382,-0.0383,-0.0384,-0.0374,-0.0388,-0.0388,-0.0388,-0.0395,-0.0395,-0.0395,0,0,0,0,0,0,-0.0246,-0.0249,-0.0293,-0.028,-0.0286,-0.0319,-0.0326,-0.0333,-0.0344,-0.0362,-0.0366,-0.0362,-0.0383,-0.0383,-0.0391,-0.0374,-0.0388,-0.0388,-0.0395,-0.0395,-0.0395,-0.0356,0,0,0,0,0,0,-0.0244,-0.0249,-0.0247,-0.0279,-0.0286,-0.0294,-0.0326,-0.0334,-0.0344,-0.0347,-0.0366,-0.0368,-0.0383,-0.0391,-0.0391,-0.0375,-0.0388,-0.0394,-0.0395,-0.0395,-0.0357,-0.0355,-0.0353,0,0,0,0,0,-0.0243,-0.0231,-0.0247,-0.025,-0.0284,-0.0293,-0.0298,-0.0325,-0.0343,-0.0339,-0.0367,-0.0367,-0.0392,-0.0391,-0.0391,-0.0374,-0.0394,-0.0395,-0.0395,-0.0358,-0.0355,-0.0353,0,0,0,0,0,0,-0.0206,-0.0235,-0.0253,-0.025,-0.0266,-0.0299,-0.0297,-0.0319,-0.034,-0.0344,-0.0369,-0.0372,-0.0374,-0.0382,-0.038,-0.038,-0.0393,-0.0393,-0.0365,-0.0362,-0.036,-0.0345,-0.0388,0,0,0,0,0,-0.0198,-0.0201,-0.0229,-0.0225,-0.0231,-0.0265,-0.0273,-0.0291,-0.0313,-0.0324,-0.034,-0.036,-0.0376,-0.0375,-0.0389,-0.0382,-0.0383,-0.0374,-0.0371,-0.0369,-0.0359,-0.0377,-0.0375,-0.0396,-0.0396,-0.0396,0,0,-0.0183,-0.0198,-0.02,-0.0218,-0.0235,-0.0235,-0.0271,-0.0275,-0.0277,-0.0318,-0.0324,-0.0351,-0.0375,-0.0378,-0.0378,-0.038,-0.0358,-0.037,-0.0368,-0.0359,-0.0377,-0.0375,-0.0373,-0.0396,-0.0396,-0.0396,0,0,-0.0146,-0.0167,-0.0155,-0.0166,-0.0183,-0.0204,-0.0202,-0.0232,-0.0248,-0.0259,-0.0297,-0.0317,-0.0331,-0.0352,-0.0363,-0.0355,-0.0351,-0.0355,-0.0323,-0.034,-0.0338,-0.0337,-0.0305,-0.0301,-0.0348,-0.0348,-0.0348,0,-0.0125,-0.012,-0.015,-0.014,-0.0145,-0.0186,-0.0174,-0.0194,-0.0224,-0.0234,-0.0251,-0.0299,-0.0318,-0.0332,-0.0335,-0.0347,-0.0343,-0.0329,-0.0336,-0.0335,-0.0334,-0.0302,-0.0298,-0.0346,-0.0347,-0.0347,-0.0347,0,-0.0079,-0.0078,-0.0069,-0.0077,-0.0085,-0.0079,-0.0111,-0.0121,-0.015,-0.0175,-0.0198,-0.0241,-0.0266,-0.0279,-0.0304,-0.0307,-0.0299,-0.0335,-0.0338,-0.0329,-0.0296,-0.0293,-0.0344,-0.0344,-0.0345,-0.0345,0,0,-0.0025,-0.0036,-0.0033,-0.0033,-0.0053,-0.0055,-0.0059,-0.0076,-0.0075,-0.0117,-0.0115,-0.017,-0.0199,-0.0216,-0.0252,-0.0269,-0.0254,-0.0293,-0.0295,-0.0251,-0.0253,-0.0224,-0.0218,-0.0295,-0.0295,-0.0295,-0.0221,0,0.002,0.0047,0.0027,0.0048,0.0055,0.0015,0.0016,-0.0007,-0.0032,-0.0038,-0.0096,-0.0105,-0.0173,-0.0175,-0.0211,-0.0241,-0.0249,-0.0268,-0.0277,-0.0275,-0.0245,-0.0215,-0.0224,-0.0158,-0.0218,-0.0217,-0.0217,0,0.0073,0.008,0.0109,0.0099,0.01,0.0105,0.0094,0.0094,0.0069,0.0052,0.0017,-0.0021,-0.0047,-0.0108,-0.0158,-0.0167,-0.0204,-0.0234,-0.0233,-0.0219,-0.0242,-0.0185,-0.015,-0.0403,-0.0212,-0.0212,-0.0212,0,0.0126,0.0136,0.0157,0.0155,0.0144,0.0146,0.0143,0.0122,0.0154,0.0123,0.0166,0.0076,0.0109,-0.0001,-0.0051,-0.0109,-0.0081,-0.0172,-0.0179,-0.0176,-0.019,-0.0188,-0.0395,-0.021,-0.021,-0.021,-0.021,0,0.018,0.0198,0.0182,0.0196,0.0229,0.0198,0.0234,0.0223,0.025,0.0341,0.023,0.0323,0.0141,0.0138,0.0008,-0.0033,-0.0031,-0.0152,-0.0159,-0.0173,-0.017,-0.0397,-0.0536,-0.0207,-0.0208,-0.0208,-0.0209,0,0.024,0.0229,0.0258,0.0252,0.0258,0.0286,0.0328,0.0377,0.0386,0.0515,0.0532,0.0546,0.0557,0.0395,0.0286,0.0117,-0.0108,0.0002,0.0028,0.0022,-0.0289,-0.0422,-0.058,-0.0687,-0.0036,-0.0035,-0.0034,0,0.0279,0.0295,0.0315,0.0364,0.0368,0.0401,0.0452,0.0449,0.0542,0.0697,0.0811,0.0859,0.0976,0.082,0.0503,0.0283,0.003,0.009,-0.0057,-0.0289,-0.0443,-0.0552,-0.064,-0.0044,-0.0043,-0.0042,-0.0042,0,0.0366,0.0367,0.041,0.05,0.0558,0.0615,0.0703,0.0802,0.0874,0.1027,0.13,0.1414,0.1271,0.1089,0.0732,0.0507,-0.0119,0.0095,-0.0174,-0.0483,-0.0585,-0.0694,-0.008,-0.0036,-0.0037,-0.0037,-0.0038,-0.0038,0.0465,0.0517,0.0592,0.0687,0.0758,0.0891,0.0988,0.1136,0.1352,0.1643,0.171,0.1956,0.1554,0.1088,0.0729,-0.0019,-0.0022,-0.0267,-0.0404,-0.0487,-0.063,0.0029,0.0072,0.0072,0.0072,0.0072,0.0072,0,0.0631,0.0698,0.0789,0.0924,0.1047,0.1026,0.1216,0.1359,0.1682,0.1952,0.2213,0.22,0.1676,0.1038,0.0067,-0.0436,-0.0685,-0.0734,-0.0948,-0.1012,-0.0449,-0.0494,-0.0537,-0.0537,-0.0537,-0.0536,-0.0536,-0.0536,0.0745,0.0887,0.0927,0.1182,0.1267,0.1442,0.1562,0.1796,0.2019,0.2404,0.2584,0.2692,0.2175,0.0466,-0.0719,-0.1,-0.1405,-0.1447,-0.1626,-0.1322,-0.1292,-0.1263,-0.1343,-0.1562,-0.1564,-0.2156,-0.2162,-0.2167]}],[{"header":{"parameterUnit":"m.s-1","parameterCategory":2,"la1":30.2991,"la2":30.254,"lo1":-89.0895,"lo2":-89.0444,"dy":0.0017,"dx":0.0017,"nx":28,"ny":28,"refTime":"2025-11-20T03:00:00:Z","depth":"2","parameterNumber":2,"parameterNumberName":"U-component_of_CURRENTS"},"data":[0,0,0,0,0,0,0,0,0,0,0,0,0,0,0,0,0,0,0,0,0,0,0,0,0,0,0,0,0,0,0,0,0,0,0,0,0,0,0,0,0,0,0,0,0,0,0,0,0,0,0,0,0,0,0,0,0,0,0.2317,0.2319,0,0.2377,0.2378,0.2378,0.2372,0.2371,0.2371,0.2371,0.2353,0.2352,0.2352,0,0,0,0,0,0,0,0,0,0,0,0,0,0.2226,0.2226,0.2317,0.2319,0.232,0.2377,0.2378,0.2378,0.2372,0.2371,0.2371,0.2371,0.2353,0.2352,0.2352,0,0,0,0,0,0,0,0,0,0,0,0,0,0.2266,0.2227,0.2317,0.233,0.2333,0.2377,0.2378,0.2378,0.2372,0.2371,0.2371,0.2371,0.2353,0.2352,0.2352,0.2354,0,0,0.235,0.235,0,0,0,0,0,0,0,0,0.2263,0.2268,0.2327,0.2329,0.2332,0.2374,0.2339,0.2369,0.2372,0.2348,0.2371,0.2371,0.2358,0.2357,0.2358,0.2354,0.2353,0.235,0.235,0.235,0.235,0,0,0,0,0,0,0,0.2261,0.2266,0.2333,0.2329,0.2332,0.2344,0.2348,0.2344,0.2346,0.235,0.2352,0.2372,0.2358,0.2359,0.2358,0.2353,0.235,0.235,0.235,0.2349,0.2369,0.237,0,0,0,0,0,0,0.2269,0.2263,0.2331,0.2335,0.2306,0.2346,0.235,0.2354,0.2348,0.235,0.2372,0.2372,0.236,0.2358,0.2357,0.2409,0.235,0.2349,0.2349,0.2368,0.2369,0.237,0,0,0,0,0,0,0.2266,0.2273,0.2329,0.2308,0.2317,0.2348,0.2353,0.2356,0.2373,0.2367,0.2365,0.2389,0.236,0.2358,0.2371,0.2406,0.2349,0.2349,0.2367,0.2369,0.237,0.248,0,0,0,0,0,0,0.2263,0.2271,0.2286,0.2308,0.2319,0.2371,0.2354,0.2357,0.2389,0.2389,0.2381,0.2378,0.2359,0.2372,0.2371,0.2404,0.2348,0.2366,0.2368,0.2369,0.2476,0.2485,0.2493,0,0,0,0,0,0.2259,0.2274,0.2285,0.2295,0.2333,0.2374,0.238,0.2396,0.239,0.2407,0.24,0.2379,0.238,0.2373,0.2371,0.2405,0.2366,0.2368,0.2369,0.2472,0.2483,0.2493,0,0,0,0,0,0,0.2229,0.2277,0.2289,0.2314,0.2353,0.2376,0.2394,0.2408,0.2416,0.2413,0.2395,0.2392,0.2423,0.239,0.2383,0.2412,0.2367,0.2369,0.2446,0.2456,0.2465,0.2462,0.2348,0,0,0,0,0,0.2236,0.2262,0.2307,0.2327,0.2347,0.2374,0.2395,0.2412,0.2424,0.2428,0.2425,0.2416,0.2427,0.2423,0.2425,0.2436,0.244,0.2453,0.2462,0.2469,0.2464,0.2512,0.2526,0.2376,0.2376,0.2376,0,0,0.2232,0.226,0.2277,0.2326,0.2347,0.238,0.2383,0.2422,0.2444,0.2423,0.2442,0.2457,0.244,0.2465,0.2473,0.2442,0.2519,0.2472,0.2479,0.2468,0.2516,0.2531,0.2544,0.2378,0.2377,0.2377,0,0,0.2234,0.226,0.2285,0.232,0.2375,0.2395,0.2413,0.2451,0.2463,0.2491,0.2492,0.2526,0.2517,0.253,0.2529,0.258,0.2577,0.258,0.2613,0.2662,0.2676,0.2687,0.2741,0.2756,0.2571,0.2571,0.2571,0,0.2229,0.226,0.2299,0.2331,0.2363,0.2402,0.2435,0.2455,0.2494,0.252,0.2503,0.2555,0.2546,0.2597,0.2613,0.2604,0.2632,0.2582,0.2677,0.2689,0.2699,0.275,0.2766,0.2577,0.2576,0.2575,0.2575,0,0.2249,0.2281,0.2295,0.2347,0.2388,0.2422,0.2468,0.2509,0.2528,0.2557,0.2621,0.2626,0.2658,0.2667,0.265,0.2727,0.2727,0.2701,0.2659,0.2721,0.2771,0.2786,0.2585,0.2583,0.2581,0.258,0,0,0.2214,0.2294,0.2298,0.2335,0.2401,0.2439,0.2487,0.2554,0.2601,0.2637,0.2695,0.2727,0.2757,0.2756,0.2766,0.2794,0.29,0.2776,0.2776,0.2844,0.3027,0.3,0.3013,0.2903,0.2906,0.2908,0.3045,0,0.2214,0.2275,0.2314,0.2375,0.2416,0.2476,0.2519,0.2591,0.2639,0.2704,0.2741,0.2796,0.2781,0.2817,0.2851,0.29,0.2938,0.2865,0.2942,0.2944,0.2924,0.3028,0.2803,0.2904,0.3059,0.3062,0.3063,0,0.2218,0.2265,0.2322,0.2412,0.2433,0.2479,0.2585,0.2629,0.2729,0.2773,0.2851,0.2879,0.2964,0.2915,0.3036,0.2999,0.3016,0.3033,0.3038,0.2977,0.2943,0.2858,0.2924,0.3087,0.3085,0.3083,0.3082,0,0.2189,0.2269,0.2315,0.2345,0.2448,0.2498,0.2558,0.2662,0.2717,0.2834,0.2896,0.2988,0.3057,0.3098,0.315,0.3106,0.3266,0.3206,0.3197,0.3196,0.2996,0.2973,0.3267,0.3266,0.3266,0.3266,0.3265,0,0.2173,0.2213,0.2314,0.2345,0.2417,0.2498,0.2573,0.2663,0.2776,0.285,0.2936,0.3017,0.3106,0.3199,0.3206,0.328,0.3326,0.323,0.3238,0.303,0.301,0.314,0.3124,0.3271,0.327,0.3269,0.3268,0,0.2129,0.2187,0.225,0.2363,0.2406,0.2459,0.2582,0.2637,0.2769,0.2874,0.292,0.3089,0.322,0.3297,0.3394,0.3373,0.342,0.3417,0.3179,0.3156,0.3297,0.3284,0.3424,0.3424,0.3425,0.3425,0.3425,0,0.211,0.2139,0.225,0.2281,0.2332,0.2418,0.2473,0.2621,0.2692,0.2903,0.2958,0.3138,0.3232,0.3408,0.3419,0.3471,0.3471,0.3265,0.3117,0.3324,0.3318,0.3304,0.3292,0.2909,0.2905,0.2902,0.2899,0,0.2069,0.2103,0.2147,0.2221,0.2284,0.2352,0.2461,0.2508,0.2674,0.2782,0.2941,0.3038,0.3237,0.3217,0.3317,0.3292,0.324,0.3199,0.3502,0.2903,0.2849,0.2839,0.2842,0.287,0.2873,0.2875,0.2876,0.2878,0.2019,0.2035,0.209,0.2153,0.2211,0.2275,0.2275,0.239,0.2485,0.2603,0.2793,0.2874,0.2995,0.3031,0.2981,0.2951,0.3141,0.2986,0.2991,0.3001,0.2916,0.2865,0.2874,0.2877,0.2879,0.2881,0.2883,0,0.1964,0.2002,0.2029,0.2084,0.2082,0.2179,0.2249,0.2209,0.2242,0.2428,0.2533,0.2437,0.2502,0.2604,0.2533,0.2567,0.2487,0.2449,0.2314,0.235,0.238,0.2255,0.2042,0.2038,0.2035,0.2032,0,0,0.1935,0.1935,0.1954,0.1944,0.1975,0.1945,0.1943,0.1925,0.2001,0.2014,0.2084,0.2346,0.2535,0.2228,0.2235,0.2118,0.2191,0.204,0.2732,0.2608,0.2632,0.2732,0.2588,0,0,0,0,0]},{"header":{"parameterUnit":"m.s-1","parameterCategory":2,"la1":30.2991,"la2":30.254,"lo1":-89.0895,"lo2":-89.0444,"dy":0.0017,"dx":0.0017,"nx":28,"ny":28,"refTime":"2025-11-20T03:00:00:Z","depth":"2","parameterNumber":3,"parameterNumberName":"V-component_of_CURRENTS"},"data":[0,0,0,0,0,0,0,0,0,0,0,0,0,0,0,0,0,0,0,0,0,0,0,0,0,0,0,0,0,0,0,0,0,0,0,0,0,0,0,0,0,0,0,0,0,0,0,0,0,0,0,0,0,0,0,0,0,0,-0.0038,-0.0038,0,-0.0094,-0.0094,-0.0095,-0.0131,-0.0131,-0.0131,-0.0132,-0.0244,-0.0247,-0.025,0,0,0,0,0,0,0,0,0,0,0,0,0,-0.0007,-0.0007,-0.0038,-0.0038,-0.0039,-0.0094,-0.0094,-0.0095,-0.0131,-0.0131,-0.0131,-0.0132,-0.0243,-0.0247,-0.025,0,0,0,0,0,0,0,0,0,0,0,0,0,-0.0037,-0.0007,-0.0037,-0.0064,-0.0067,-0.0094,-0.0094,-0.0095,-0.0131,-0.0131,-0.0131,-0.0132,-0.0242,-0.0246,-0.025,-0.0268,0,0,-0.0263,-0.0265,0,0,0,0,0,0,0,0,-0.0035,-0.0038,-0.0059,-0.0062,-0.0066,-0.0106,-0.0125,-0.0156,-0.0131,-0.0106,-0.0132,-0.0132,-0.0203,-0.0211,-0.0219,-0.0273,-0.0278,-0.0263,-0.0266,-0.0268,-0.0269,0,0,0,0,0,0,0,-0.0033,-0.0036,-0.0059,-0.006,-0.0064,-0.0089,-0.0093,-0.0131,-0.0152,-0.0108,-0.0111,-0.0118,-0.0206,-0.0215,-0.0222,-0.0279,-0.0263,-0.0267,-0.0269,-0.0271,-0.0343,-0.0342,0,0,0,0,0,0,-0.0024,-0.0034,-0.0057,-0.0061,-0.0052,-0.0089,-0.0094,-0.0092,-0.0151,-0.016,-0.0118,-0.0119,-0.0207,-0.0217,-0.0226,-0.0238,-0.0268,-0.0271,-0.0274,-0.0343,-0.0343,-0.0342,0,0,0,0,0,0,-0.0023,-0.0025,-0.0055,-0.005,-0.0055,-0.0089,-0.0087,-0.0093,-0.0103,-0.0157,-0.0168,-0.0121,-0.0208,-0.022,-0.0248,-0.0243,-0.0273,-0.0277,-0.0344,-0.0343,-0.0342,-0.0269,0,0,0,0,0,0,-0.0022,-0.0025,-0.0022,-0.0049,-0.0055,-0.0062,-0.0087,-0.0094,-0.0107,-0.011,-0.0164,-0.0175,-0.0209,-0.0241,-0.0252,-0.0249,-0.028,-0.0345,-0.0344,-0.0343,-0.0273,-0.0266,-0.0261,0,0,0,0,0,-0.0021,-0.0008,-0.0021,-0.0025,-0.005,-0.0062,-0.0067,-0.0093,-0.0106,-0.0104,-0.0137,-0.0173,-0.0243,-0.0244,-0.0257,-0.0255,-0.0345,-0.0344,-0.0343,-0.0275,-0.0267,-0.0261,0,0,0,0,0,0,0.0011,-0.0011,-0.0026,-0.002,-0.0039,-0.0068,-0.0069,-0.0088,-0.0112,-0.0116,-0.0167,-0.018,-0.0204,-0.0237,-0.0237,-0.0272,-0.03,-0.0301,-0.0244,-0.0237,-0.0232,-0.0213,-0.0284,0,0,0,0,0,0.0017,0.002,-0.0007,-0.0002,-0.0008,-0.0039,-0.0049,-0.0065,-0.009,-0.0101,-0.0139,-0.0177,-0.0208,-0.0227,-0.0262,-0.0281,-0.0313,-0.0287,-0.0281,-0.0276,-0.0269,-0.0311,-0.0308,-0.0338,-0.0338,-0.0338,0,0,0.0027,0.0018,0.0017,0.0004,-0.0012,-0.0009,-0.0045,-0.0052,-0.0049,-0.0111,-0.0119,-0.0161,-0.0209,-0.0227,-0.0241,-0.0254,-0.0282,-0.0274,-0.027,-0.0265,-0.0309,-0.0306,-0.0304,-0.0337,-0.0337,-0.0337,0,0,0.0058,0.0045,0.0058,0.0049,0.003,0.0014,0.0015,-0.0013,-0.0024,-0.004,-0.0081,-0.0114,-0.0163,-0.0192,-0.0214,-0.0197,-0.0251,-0.0213,-0.0169,-0.0209,-0.0207,-0.0206,-0.0233,-0.0234,-0.0208,-0.0208,-0.0208,0,0.0071,0.0088,0.0059,0.0072,0.0073,0.003,0.0048,0.0032,-0.0002,-0.0009,-0.0031,-0.0099,-0.0143,-0.0165,-0.0158,-0.0184,-0.0213,-0.0191,-0.0201,-0.0201,-0.0201,-0.0229,-0.0232,-0.0204,-0.0205,-0.0205,-0.0206,0,0.0112,0.0124,0.0134,0.0138,0.0133,0.0143,0.0117,0.011,0.0086,0.0061,0.0032,-0.0026,-0.0065,-0.0087,-0.0118,-0.0137,-0.016,-0.019,-0.0217,-0.0193,-0.0224,-0.0228,-0.0199,-0.02,-0.0202,-0.0202,0,0,0.0146,0.0161,0.0165,0.0183,0.0171,0.0176,0.0182,0.0175,0.0186,0.0133,0.0137,0.0072,0.003,0.0003,-0.0049,-0.0085,-0.0109,-0.0131,-0.0135,-0.0153,-0.0191,-0.0218,-0.0226,-0.0146,-0.0146,-0.0147,-0.021,0,0.0189,0.0237,0.0227,0.027,0.0294,0.0265,0.0279,0.0262,0.024,0.0231,0.0158,0.0135,0.0067,0.0049,0.0001,-0.0081,-0.0119,-0.0089,-0.0216,-0.0219,-0.0243,-0.0231,-0.0202,-0.0258,-0.0214,-0.0215,-0.0216,0,0.0233,0.0263,0.0315,0.035,0.0357,0.037,0.0388,0.0394,0.0363,0.0342,0.0294,0.0237,0.0174,0.0115,-0.0016,0.0005,-0.0084,-0.0152,-0.0157,-0.0211,-0.0254,-0.0278,-0.0268,-0.0223,-0.0223,-0.0222,-0.0222,0,0.0279,0.0325,0.0374,0.0383,0.041,0.0426,0.0435,0.0423,0.045,0.0407,0.0415,0.0318,0.0285,0.0155,0.001,-0.0005,-0.0131,-0.0171,-0.0278,-0.0281,-0.0295,-0.0298,-0.0262,-0.0262,-0.0262,-0.0262,-0.0261,0,0.0333,0.0372,0.04,0.0425,0.0491,0.0479,0.0539,0.0529,0.0537,0.0577,0.0473,0.0486,0.0293,0.0198,0.0046,-0.0122,-0.0108,-0.0266,-0.0301,-0.0268,-0.0268,-0.0273,-0.0273,-0.0264,-0.0264,-0.0263,-0.0263,0,0.0376,0.0393,0.0456,0.0497,0.0514,0.0558,0.0619,0.0669,0.0651,0.0701,0.0692,0.0614,0.0485,0.0291,0.0091,-0.006,-0.0229,-0.0293,-0.0236,-0.0263,-0.036,-0.0356,-0.042,-0.0421,-0.0423,-0.0424,-0.0425,0,0.0402,0.0437,0.0511,0.056,0.058,0.0646,0.0704,0.0721,0.0777,0.079,0.0825,0.0723,0.0671,0.0365,0.0077,-0.0197,-0.0229,-0.035,-0.0383,-0.035,-0.0377,-0.0371,-0.0365,-0.0369,-0.0369,-0.0369,-0.037,0,0.0452,0.0475,0.0528,0.0632,0.0702,0.0798,0.0871,0.0939,0.0966,0.1006,0.1042,0.1003,0.0712,0.044,0.0054,-0.0129,-0.031,-0.0366,-0.0347,-0.0334,-0.0307,-0.0332,-0.0327,-0.0372,-0.0372,-0.0372,-0.0372,-0.0371,0.0484,0.0536,0.0607,0.0706,0.08,0.0923,0.1014,0.11,0.1201,0.1257,0.1208,0.1154,0.0831,0.0347,0.0016,-0.033,-0.0326,-0.0444,-0.0441,-0.0438,-0.0421,-0.0399,-0.0477,-0.0477,-0.0477,-0.0477,-0.0478,0,0.0516,0.0577,0.0677,0.0799,0.0913,0.0956,0.1112,0.12,0.1328,0.1377,0.1389,0.1097,0.078,0.042,-0.0103,-0.042,-0.0433,-0.0504,-0.0454,-0.045,-0.0446,-0.0429,-0.0487,-0.0488,-0.0489,-0.0489,0,0,0.0534,0.0623,0.0681,0.0862,0.0958,0.1121,0.1222,0.1345,0.1421,0.1469,0.1443,0.1348,0.0905,0.0532,0.0097,-0.0194,-0.0241,-0.0244,-0.0205,-0.009,-0.0082,-0.0385,-0.035,0,0,0,0,0]}],[{"header":{"parameterUnit":"m.s-1","parameterCategory":2,"la1":30.2991,"la2":30.254,"lo1":-89.0895,"lo2":-89.0444,"dy":0.0017,"dx":0.0017,"nx":28,"ny":28,"refTime":"2025-11-20T03:00:00:Z","depth":"4","parameterNumber":2,"parameterNumberName":"U-component_of_CURRENTS"},"data":[0,0,0,0,0,0,0,0,0,0,0,0,0,0,0,0,0,0,0,0,0,0,0,0,0,0,0,0,0,0,0,0,0,0,0,0,0,0,0,0,0,0,0,0,0,0,0,0,0,0,0,0,0,0,0,0,0,0,0.1354,0.1355,0,0.1392,0.1392,0.1392,0.1421,0.1421,0.1422,0.1423,0.1458,0.1458,0.1459,0,0,0,0,0,0,0,0,0,0,0,0,0,0.1284,0.1285,0.1354,0.1355,0.1356,0.1392,0.1392,0.1392,0.1421,0.1421,0.1422,0.1423,0.1458,0.1458,0.1459,0,0,0,0,0,0,0,0,0,0,0,0,0,0.1312,0.1285,0.1354,0.1379,0.1382,0.1392,0.1392,0.1392,0.142,0.1421,0.1423,0.1424,0.1458,0.1458,0.1459,0.1438,0,0,0.146,0.146,0,0,0,0,0,0,0,0,0.1311,0.1314,0.1374,0.1377,0.138,0.1407,0.138,0.1409,0.142,0.14,0.1423,0.1424,0.1444,0.1445,0.1442,0.144,0.1442,0.146,0.146,0.146,0.146,0,0,0,0,0,0,0,0.1309,0.1313,0.1364,0.1375,0.1379,0.138,0.1385,0.1385,0.1411,0.1402,0.1405,0.1418,0.1445,0.1442,0.1443,0.1442,0.146,0.146,0.146,0.146,0.1534,0.1535,0,0,0,0,0,0,0.1315,0.1311,0.1363,0.1366,0.1354,0.1381,0.1386,0.1393,0.1411,0.1416,0.1417,0.1419,0.1441,0.1443,0.1445,0.1522,0.146,0.1461,0.1461,0.1532,0.1534,0.1536,0,0,0,0,0,0,0.1313,0.1319,0.1361,0.1344,0.135,0.1382,0.1389,0.1394,0.143,0.1423,0.1428,0.1453,0.1442,0.1444,0.1477,0.152,0.1461,0.1461,0.153,0.1533,0.1535,0.1613,0,0,0,0,0,0,0.1311,0.1318,0.1337,0.1344,0.1351,0.1396,0.1389,0.1394,0.1435,0.144,0.1455,0.1457,0.1443,0.1477,0.1478,0.152,0.1461,0.1528,0.1531,0.1534,0.1608,0.1618,0.1627,0,0,0,0,0,0.1308,0.1323,0.1337,0.1344,0.1372,0.1398,0.1402,0.1424,0.1437,0.1459,0.1469,0.1459,0.1498,0.1478,0.1479,0.1522,0.1526,0.153,0.1534,0.1604,0.1616,0.1626,0,0,0,0,0,0,0.1303,0.1328,0.1343,0.1367,0.1397,0.1405,0.1428,0.1446,0.147,0.1483,0.1474,0.1476,0.1522,0.1511,0.1489,0.1554,0.1514,0.1518,0.1567,0.1578,0.1587,0.1594,0.1462,0,0,0,0,0,0.1311,0.1332,0.1358,0.1383,0.1398,0.1421,0.144,0.1461,0.1479,0.1493,0.1504,0.1517,0.1531,0.1547,0.1552,0.1584,0.1591,0.1615,0.1624,0.1632,0.1639,0.1678,0.1691,0.1549,0.1549,0.1549,0,0,0.1317,0.1335,0.1349,0.1385,0.1404,0.1428,0.1435,0.1478,0.1505,0.1492,0.1536,0.1549,0.1546,0.1583,0.1604,0.1585,0.1682,0.1637,0.1644,0.1647,0.1684,0.1698,0.171,0.1551,0.1551,0.155,0,0,0.1329,0.1357,0.1376,0.1404,0.1451,0.1461,0.1485,0.1519,0.1546,0.1585,0.1588,0.163,0.1645,0.1658,0.1662,0.1724,0.1726,0.1737,0.1793,0.1831,0.1843,0.1853,0.1904,0.1919,0.1745,0.1745,0.1745,0,0.1339,0.136,0.1388,0.1415,0.1442,0.148,0.1509,0.1535,0.1581,0.1611,0.1613,0.1673,0.1676,0.1725,0.1753,0.1746,0.1774,0.1751,0.1843,0.1853,0.1863,0.1912,0.1927,0.1749,0.1749,0.1748,0.1748,0,0.1357,0.1386,0.1401,0.1441,0.1478,0.1511,0.1553,0.1599,0.1636,0.1665,0.1739,0.1752,0.1792,0.1807,0.1799,0.1878,0.1881,0.1848,0.1815,0.1882,0.193,0.1944,0.1755,0.1754,0.1752,0.1751,0,0,0.1339,0.1399,0.1407,0.1431,0.1497,0.1523,0.1582,0.1639,0.1685,0.1745,0.1808,0.1852,0.1888,0.1896,0.191,0.195,0.205,0.1942,0.1942,0.1992,0.2161,0.2034,0.2037,0.2041,0.2043,0.2045,0.2176,0,0.1343,0.1383,0.1421,0.147,0.1491,0.1555,0.16,0.1671,0.1727,0.1797,0.1854,0.1913,0.1913,0.1954,0.1998,0.2033,0.2088,0.2019,0.2088,0.209,0.1968,0.2048,0.2052,0.2186,0.2189,0.2191,0.2193,0,0.1341,0.1368,0.1412,0.1478,0.1497,0.1538,0.1631,0.1683,0.179,0.184,0.1929,0.1978,0.2075,0.2049,0.2163,0.2127,0.216,0.218,0.2184,0.2044,0.1988,0.2099,0.2218,0.2216,0.2214,0.2213,0.2211,0,0.1296,0.136,0.1393,0.1418,0.15,0.1545,0.1599,0.1703,0.1764,0.1887,0.1956,0.2056,0.2133,0.2187,0.2255,0.2224,0.2366,0.2316,0.2238,0.2231,0.227,0.2257,0.2396,0.2395,0.2395,0.2395,0.2394,0,0.1266,0.1295,0.1377,0.1393,0.144,0.1526,0.1602,0.1667,0.1793,0.1874,0.1986,0.2064,0.2175,0.2271,0.2298,0.2323,0.2407,0.2268,0.2256,0.2303,0.2292,0.2281,0.2266,0.24,0.2399,0.2398,0.2397,0,0.1206,0.1261,0.1297,0.1386,0.1417,0.1459,0.159,0.1643,0.1778,0.1895,0.195,0.2113,0.2229,0.2326,0.2427,0.2373,0.2402,0.2389,0.2472,0.246,0.2235,0.2223,0.2308,0.2305,0.2302,0.2299,0.2297,0,0.1172,0.1184,0.1273,0.1295,0.1336,0.1417,0.1467,0.1609,0.1676,0.1905,0.1947,0.2132,0.2225,0.2283,0.237,0.2427,0.2395,0.2399,0.2279,0.2246,0.2227,0.2219,0.2211,0.2293,0.2292,0.2291,0.2291,0,0.1093,0.1138,0.117,0.1216,0.1266,0.1322,0.1414,0.1457,0.1639,0.1788,0.1913,0.2005,0.2136,0.2211,0.2285,0.2308,0.238,0.2368,0.2372,0.226,0.2228,0.2211,0.2206,0.2281,0.2282,0.2283,0.2284,0,0.1032,0.1034,0.1083,0.1119,0.1182,0.1211,0.1271,0.1369,0.1464,0.1721,0.176,0.1957,0.2117,0.2153,0.2213,0.2237,0.2192,0.2106,0.2123,0.2135,0.2014,0.1945,0.1918,0,0,0,0,0,0.0958,0.0954,0.0978,0.1014,0.1081,0.112,0.123,0.1306,0.1492,0.1537,0.1652,0.177,0.189,0.1982,0.1973,0.2121,0.2184,0.2099,0.2088,0.2226,0.2237,0.2109,0,0,0,0,0,0,0.0904,0.0924,0.094,0.0931,0.0946,0.1003,0.107,0.1188,0.1226,0.1428,0.15,0.1663,0.1794,0.1885,0.1941,0.197,0.1926,0.2222,0.2218,0.2219,0.223,0.2239,0.2111,0,0,0,0,0]},{"header":{"parameterUnit":"m.s-1","parameterCategory":2,"la1":30.2991,"la2":30.254,"lo1":-89.0895,"lo2":-89.0444,"dy":0.0017,"dx":0.0017,"nx":28,"ny":28,"refTime":"2025-11-20T03:00:00:Z","depth":"4","parameterNumber":3,"parameterNumberName":"V-component_of_CURRENTS"},"data":[0,0,0,0,0,0,0,0,0,0,0,0,0,0,0,0,0,0,0,0,0,0,0,0,0,0,0,0,0,0,0,0,0,0,0,0,0,0,0,0,0,0,0,0,0,0,0,0,0,0,0,0,0,0,0,0,0,0,0.0064,0.0064,0,0.0033,0.0033,0.0032,0.0007,0.0007,0.0007,0.0007,-0.008,-0.0082,-0.0084,0,0,0,0,0,0,0,0,0,0,0,0,0,0.0076,0.0076,0.0064,0.0064,0.0064,0.0033,0.0033,0.0032,0.0007,0.0007,0.0007,0.0007,-0.0079,-0.0081,-0.0084,0,0,0,0,0,0,0,0,0,0,0,0,0,0.006,0.0076,0.0064,0.0048,0.0046,0.0033,0.0033,0.0032,0.0007,0.0007,0.0007,0.0006,-0.0078,-0.0081,-0.0084,-0.0097,0,0,-0.0094,-0.0095,0,0,0,0,0,0,0,0,0.0061,0.006,0.0051,0.0049,0.0047,0.0024,0.0005,-0.0014,0.0008,0.0022,0.0007,0.0006,-0.005,-0.0055,-0.006,-0.0101,-0.0105,-0.0094,-0.0096,-0.0097,-0.0098,0,0,0,0,0,0,0,0.0063,0.0061,0.0052,0.005,0.0048,0.0033,0.003,0.0002,-0.0013,0.0021,0.0019,0.0016,-0.0051,-0.0057,-0.0062,-0.0106,-0.0094,-0.0097,-0.0099,-0.01,-0.0169,-0.0169,0,0,0,0,0,0,0.0069,0.0062,0.0053,0.0051,0.0054,0.0033,0.003,0.0031,-0.0011,-0.0018,0.0016,0.0015,-0.0051,-0.0059,-0.0065,-0.0078,-0.0097,-0.01,-0.0102,-0.0169,-0.0169,-0.0169,0,0,0,0,0,0,0.0069,0.0068,0.0054,0.0056,0.0053,0.0033,0.0035,0.0031,0.0025,-0.0014,-0.0022,0.0014,-0.0052,-0.0061,-0.0085,-0.0082,-0.0102,-0.0105,-0.0169,-0.0169,-0.0169,-0.0106,0,0,0,0,0,0,0.007,0.0069,0.0073,0.0056,0.0053,0.0051,0.0035,0.0031,0.0024,0.0022,-0.0018,-0.0027,-0.0053,-0.008,-0.0088,-0.0086,-0.0107,-0.0169,-0.0169,-0.0169,-0.0108,-0.0104,-0.01,0,0,0,0,0,0.007,0.0081,0.0073,0.0072,0.0059,0.0052,0.0049,0.0033,0.0024,0.0026,0.0001,-0.0025,-0.0085,-0.0082,-0.0091,-0.0091,-0.0169,-0.0169,-0.0169,-0.011,-0.0105,-0.01,0,0,0,0,0,0,0.0088,0.0079,0.007,0.0077,0.0066,0.0048,0.0049,0.0036,0.0019,0.0015,-0.0022,-0.0032,-0.0053,-0.0081,-0.0076,-0.0111,-0.0133,-0.0134,-0.0085,-0.008,-0.0076,-0.006,-0.011,0,0,0,0,0,0.0094,0.0099,0.0084,0.0089,0.0086,0.0067,0.0063,0.0052,0.0033,0.0026,-0.0002,-0.0033,-0.006,-0.0076,-0.0104,-0.0122,-0.0154,-0.013,-0.0125,-0.0122,-0.0116,-0.016,-0.0159,-0.0168,-0.0168,-0.0168,0,0,0.0101,0.0097,0.0099,0.0093,0.0084,0.0089,0.0064,0.006,0.0064,0.0018,0.0013,-0.002,-0.0061,-0.0078,-0.0091,-0.0101,-0.0136,-0.0122,-0.0118,-0.0114,-0.016,-0.0159,-0.0158,-0.0168,-0.0168,-0.0168,0,0,0.0121,0.0116,0.0127,0.0124,0.0115,0.0105,0.0106,0.0089,0.0081,0.007,0.0039,0.0011,-0.003,-0.0054,-0.0073,-0.0066,-0.0112,-0.008,-0.0048,-0.009,-0.0089,-0.0089,-0.0125,-0.0129,-0.0079,-0.0078,-0.0078,0,0.0131,0.0146,0.0129,0.014,0.0146,0.0116,0.0132,0.012,0.0098,0.0096,0.0075,0.0021,-0.0017,-0.0035,-0.0034,-0.0056,-0.0087,-0.006,-0.0084,-0.0084,-0.0085,-0.0122,-0.0127,-0.0075,-0.0076,-0.0076,-0.0076,0,0.0158,0.0173,0.0181,0.0189,0.0189,0.0199,0.0183,0.0183,0.0166,0.0149,0.0126,0.0075,0.0044,0.0023,-0.0005,-0.0027,-0.0049,-0.0071,-0.0092,-0.008,-0.012,-0.0126,-0.0071,-0.0072,-0.0073,-0.0074,0,0,0.0176,0.0199,0.0203,0.0225,0.022,0.0229,0.0236,0.0238,0.0251,0.0209,0.0213,0.0156,0.0122,0.0098,0.0054,0.0012,-0.0025,-0.0029,-0.0033,-0.0057,-0.0117,-0.0128,-0.0136,-0.0053,-0.0054,-0.0055,-0.014,0,0.0207,0.0251,0.0248,0.0292,0.0316,0.0303,0.0318,0.0312,0.0294,0.0288,0.0227,0.0208,0.0152,0.0137,0.0087,0.0002,-0.0039,0.0,-0.0131,-0.0135,-0.014,-0.0143,-0.0057,-0.0145,-0.0147,-0.0148,-0.0149,0,0.0235,0.0267,0.0317,0.0364,0.0373,0.0392,0.0419,0.0427,0.0405,0.0386,0.0347,0.0297,0.0234,0.0183,0.0048,0.0075,-0.0012,-0.0083,-0.0088,-0.0124,-0.0157,-0.0163,-0.016,-0.0159,-0.0158,-0.0158,-0.0157,0,0.0266,0.0317,0.0366,0.038,0.0418,0.0445,0.0464,0.0459,0.0478,0.0447,0.0445,0.036,0.0316,0.0199,0.0049,0.0048,-0.0107,-0.0127,-0.0216,-0.0218,-0.0209,-0.0209,-0.0218,-0.0218,-0.0218,-0.0218,-0.0218,0,0.0301,0.0343,0.0391,0.042,0.049,0.0494,0.0553,0.0553,0.0557,0.0575,0.0498,0.048,0.0315,0.0208,0.0072,-0.0093,-0.0092,-0.021,-0.0241,-0.0181,-0.0176,-0.0214,-0.0212,-0.0221,-0.022,-0.022,-0.0219,0,0.0323,0.0353,0.0418,0.0479,0.0507,0.0554,0.0622,0.0661,0.0649,0.0668,0.0661,0.0564,0.0416,0.0248,0.0047,-0.0059,-0.0216,-0.0274,-0.0192,-0.0218,-0.0302,-0.0297,-0.0373,-0.0374,-0.0375,-0.0376,-0.0376,0,0.0339,0.0373,0.0462,0.0511,0.0545,0.062,0.0676,0.0702,0.0732,0.0714,0.0718,0.0599,0.0509,0.0229,0.004,-0.0212,-0.0252,-0.0324,-0.0318,-0.0295,-0.0319,-0.0311,-0.0304,-0.0378,-0.0378,-0.0378,-0.0379,0,0.0366,0.0395,0.045,0.055,0.0624,0.0712,0.0781,0.0812,0.083,0.0827,0.0765,0.0625,0.0455,0.023,0.003,-0.0152,-0.0271,-0.0334,-0.0334,-0.0329,-0.0302,-0.0323,-0.0315,-0.0382,-0.0381,-0.0381,-0.0381,0,0.0382,0.0424,0.0494,0.0583,0.0676,0.076,0.0807,0.084,0.087,0.0841,0.0816,0.0639,0.0534,0.0261,0.0076,-0.0105,-0.0151,-0.0199,-0.0207,-0.0205,-0.0137,-0.0078,-0.0114,0,0,0,0,0,0.0394,0.0442,0.0523,0.0617,0.0707,0.0766,0.0855,0.0889,0.0908,0.0876,0.0847,0.069,0.0416,0.0295,0.0112,0.0045,-0.0191,-0.0176,-0.0252,-0.04,-0.0396,-0.0347,0,0,0,0,0,0,0.0402,0.0473,0.0518,0.0623,0.069,0.0795,0.0857,0.0882,0.0858,0.0848,0.0703,0.0641,0.037,0.0513,0.0104,0.0049,-0.0023,-0.0304,-0.0307,-0.0402,-0.0399,-0.0396,-0.0343,0,0,0,0,0]}]]